Time,TemperatureF,DewpointF,PressureIn,WindDirection,WindDirectionDegrees,WindSpeedMPH,WindSpeedGustMPH,Humidity,HourlyPrecipIn,Conditions,Clouds,dailyrainin,SoftwareType,DateUTC
2013-06-03 00:01:00,72.8,62.9,29.78,WNW,293,0.0,2.0,71,0.00,,SCT090,0.00,VWS V14.01,2013-06-03 04:01:00,
2013-06-03 00:06:00,72.7,62.8,29.78,WNW,283,1.0,3.0,71,0.00,,SCT090,0.00,VWS V14.01,2013-06-03 04:06:00,
2013-06-03 00:11:00,72.6,63.1,29.78,SW,225,0.0,3.0,72,0.00,,SCT090,0.00,VWS V14.01,2013-06-03 04:11:00,
2013-06-03 00:16:00,72.2,63.1,29.78,SW,226,0.0,3.0,73,0.00,,SCT090,0.00,VWS V14.01,2013-06-03 04:16:00,
2013-06-03 00:21:00,71.9,63.2,29.79,WNW,284,0.0,3.0,74,0.00,,SCT090,0.00,VWS V14.01,2013-06-03 04:21:00,
2013-06-03 00:26:00,71.6,63.3,29.78,WNW,287,2.0,4.0,75,0.00,,SCT090,0.00,VWS V14.01,2013-06-03 04:26:00,
2013-06-03 00:31:00,71.4,63.5,29.78,WNW,285,2.0,3.0,76,0.00,,SCT090,0.00,VWS V14.01,2013-06-03 04:31:00,
2013-06-03 00:36:00,71.3,63.3,29.78,WNW,286,0.0,3.0,76,0.00,,SCT090,0.00,VWS V14.01,2013-06-03 04:36:00,
2013-06-03 00:42:00,71.0,63.1,29.78,NW,319,0.0,3.0,76,0.00,,SCT090,0.00,VWS V14.01,2013-06-03 04:42:00,
2013-06-03 00:47:00,70.8,63.2,29.78,NW,319,0.0,3.0,77,0.00,,SCT090,0.00,VWS V14.01,2013-06-03 04:47:00,
2013-06-03 00:52:00,70.5,63.0,29.78,NW,319,0.0,3.0,77,0.00,,SCT090,0.00,VWS V14.01,2013-06-03 04:52:00,
2013-06-03 00:57:00,70.3,62.8,29.78,NW,319,0.0,3.0,77,0.00,,SCT090,0.00,VWS V14.01,2013-06-03 04:57:00,
2013-06-03 01:02:00,70.2,63.0,29.78,East,100,0.0,0.0,78,0.00,,BKN080,0.00,VWS V14.01,2013-06-03 05:02:00,
2013-06-03 01:07:00,70.0,63.2,29.79,ESE,108,0.0,2.0,79,0.00,,BKN080,0.00,VWS V14.01,2013-06-03 05:07:00,
2013-06-03 01:12:00,69.8,63.4,29.78,East,98,0.0,2.0,80,0.00,,BKN080,0.00,VWS V14.01,2013-06-03 05:12:00,
2013-06-03 01:17:00,69.6,63.2,29.79,ESE,103,0.0,2.0,80,0.00,,BKN080,0.00,VWS V14.01,2013-06-03 05:17:00,
2013-06-03 01:22:00,69.4,63.3,29.79,SW,225,0.0,2.0,81,0.00,,BKN080,0.00,VWS V14.01,2013-06-03 05:22:00,
2013-06-03 01:27:00,69.2,63.1,29.79,SW,225,0.0,2.0,81,0.00,,BKN080,0.00,VWS V14.01,2013-06-03 05:27:00,
2013-06-03 01:32:00,69.2,63.1,29.79,SW,225,0.0,0.0,81,0.00,,BKN080,0.00,VWS V14.01,2013-06-03 05:32:00,
2013-06-03 01:37:00,69.1,63.0,29.79,WSW,238,0.0,0.0,81,0.00,,BKN080,0.00,VWS V14.01,2013-06-03 05:37:00,
2013-06-03 01:42:00,69.0,62.9,29.79,WSW,238,0.0,0.0,81,0.00,,BKN080,0.00,VWS V14.01,2013-06-03 05:42:00,
2013-06-03 01:47:00,69.0,62.9,29.79,WSW,238,0.0,0.0,81,0.00,,BKN080,0.00,VWS V14.01,2013-06-03 05:47:00,
2013-06-03 01:52:00,68.9,63.2,29.79,WSW,238,0.0,0.0,82,0.00,,BKN080,0.00,VWS V14.01,2013-06-03 05:52:00,
2013-06-03 01:56:00,69.0,63.3,29.79,West,281,0.0,0.0,82,0.00,,BKN080,0.00,VWS V14.01,2013-06-03 05:56:00,
2013-06-03 02:01:00,69.0,63.3,29.79,WNW,284,0.0,2.0,82,0.00,,BKN080,0.00,VWS V14.01,2013-06-03 06:01:00,
2013-06-03 02:06:00,69.0,63.3,29.79,WNW,287,0.0,3.0,82,0.00,,BKN080,0.00,VWS V14.01,2013-06-03 06:06:00,
2013-06-03 02:11:00,68.9,63.2,29.79,NW,309,0.0,3.0,82,0.00,,BKN080,0.00,VWS V14.01,2013-06-03 06:11:00,
2013-06-03 02:16:00,68.9,63.5,29.79,West,281,2.0,3.0,83,0.00,,BKN080,0.00,VWS V14.01,2013-06-03 06:16:00,
2013-06-03 02:21:00,68.7,63.3,29.79,WNW,291,3.0,3.0,83,0.00,,BKN080,0.00,VWS V14.01,2013-06-03 06:21:00,
2013-06-03 02:26:00,68.7,63.3,29.79,NW,306,0.0,3.0,83,0.00,,BKN080,0.00,VWS V14.01,2013-06-03 06:26:00,
2013-06-03 02:31:00,68.6,63.2,29.79,West,280,1.0,1.0,83,0.00,,OVC100,0.00,VWS V14.01,2013-06-03 06:31:00,
2013-06-03 02:36:00,68.5,63.5,29.79,WNW,287,2.0,3.0,84,0.00,,OVC100,0.00,VWS V14.01,2013-06-03 06:36:00,
2013-06-03 02:41:00,68.5,63.5,29.80,WNW,284,2.0,4.0,84,0.00,,OVC100,0.00,VWS V14.01,2013-06-03 06:41:00,
2013-06-03 02:47:00,68.4,63.7,29.80,WNW,293,5.0,5.0,85,0.00,,OVC100,0.00,VWS V14.01,2013-06-03 06:47:00,
2013-06-03 02:52:00,68.3,63.6,29.80,WNW,293,3.0,5.0,85,0.00,,OVC100,0.00,VWS V14.01,2013-06-03 06:52:00,
2013-06-03 02:57:00,68.3,63.6,29.80,WNW,293,4.0,7.0,85,0.00,,OVC100,0.00,VWS V14.01,2013-06-03 06:57:00,
2013-06-03 03:02:00,68.2,63.5,29.80,WNW,294,2.0,4.0,85,0.00,,OVC095,0.00,VWS V14.01,2013-06-03 07:02:00,
2013-06-03 03:07:00,68.1,63.4,29.80,West,281,1.0,6.0,85,0.00,,OVC095,0.00,VWS V14.01,2013-06-03 07:07:00,
2013-06-03 03:12:00,68.0,63.3,29.80,WNW,295,1.0,6.0,85,0.00,,OVC095,0.00,VWS V14.01,2013-06-03 07:12:00,
2013-06-03 03:17:00,67.9,63.2,29.80,WNW,294,2.0,6.0,85,0.00,,OVC095,0.00,VWS V14.01,2013-06-03 07:17:00,
2013-06-03 03:22:00,67.7,63.0,29.80,West,281,1.0,6.0,85,0.00,,OVC095,0.00,VWS V14.01,2013-06-03 07:22:00,
2013-06-03 03:27:00,67.6,63.3,29.80,WNW,297,0.0,6.0,86,0.00,,OVC095,0.00,VWS V14.01,2013-06-03 07:27:00,
2013-06-03 03:32:00,67.5,63.2,29.80,WNW,293,0.0,1.0,86,0.00,,OVC095,0.00,VWS V14.01,2013-06-03 07:32:00,
2013-06-03 03:37:00,67.5,63.2,29.80,WNW,288,0.0,4.0,86,0.00,,OVC095,0.00,VWS V14.01,2013-06-03 07:37:00,
2013-06-03 03:42:00,67.3,63.0,29.80,WNW,291,1.0,4.0,86,0.00,,OVC095,0.00,VWS V14.01,2013-06-03 07:42:00,
2013-06-03 03:47:00,67.3,63.0,29.80,WNW,288,2.0,4.0,86,0.00,,OVC095,0.00,VWS V14.01,2013-06-03 07:47:00,
2013-06-03 03:52:00,67.1,62.8,29.80,WNW,290,1.0,4.0,86,0.00,,OVC095,0.00,VWS V14.01,2013-06-03 07:52:00,
2013-06-03 03:57:00,67.1,62.8,29.79,West,278,0.0,4.0,86,0.00,,OVC095,0.00,VWS V14.01,2013-06-03 07:57:00,
2013-06-03 04:02:00,66.9,62.9,29.79,WNW,284,1.0,2.0,87,0.00,,BKN095,0.00,VWS V14.01,2013-06-03 08:02:00,
2013-06-03 04:07:00,66.7,62.7,29.79,WNW,284,1.0,2.0,87,0.00,,BKN095,0.00,VWS V14.01,2013-06-03 08:07:00,
2013-06-03 04:12:00,66.6,62.9,29.79,West,281,1.0,3.0,88,0.00,,BKN095,0.00,VWS V14.01,2013-06-03 08:12:00,
2013-06-03 04:17:00,66.4,62.7,29.79,West,281,0.0,3.0,88,0.00,,BKN095,0.00,VWS V14.01,2013-06-03 08:17:00,
2013-06-03 04:22:00,66.2,62.5,29.79,West,281,0.0,3.0,88,0.00,,BKN095,0.00,VWS V14.01,2013-06-03 08:22:00,
2013-06-03 04:27:00,66.0,62.3,29.79,West,281,0.0,3.0,88,0.00,,BKN095,0.00,VWS V14.01,2013-06-03 08:27:00,
2013-06-03 04:32:00,65.8,62.2,29.79,West,279,0.0,0.0,88,0.00,,BKN095,0.00,VWS V14.01,2013-06-03 08:32:00,
2013-06-03 04:37:00,65.6,62.0,29.79,West,280,0.0,0.0,88,0.00,,BKN095,0.00,VWS V14.01,2013-06-03 08:37:00,
2013-06-03 04:42:00,65.2,61.6,29.79,West,280,0.0,1.0,88,0.00,,BKN095,0.00,VWS V14.01,2013-06-03 08:42:00,
2013-06-03 04:47:00,65.0,61.4,29.80,West,280,0.0,1.0,88,0.00,,BKN095,0.00,VWS V14.01,2013-06-03 08:47:00,
2013-06-03 04:52:00,64.8,61.5,29.80,West,280,0.0,1.0,89,0.00,,BKN095,0.00,VWS V14.01,2013-06-03 08:52:00,
2013-06-03 04:57:00,64.5,61.2,29.80,WNW,302,0.0,1.0,89,0.00,,BKN095,0.00,VWS V14.01,2013-06-03 08:57:00,
2013-06-03 05:02:00,64.3,60.7,29.81,NW,305,0.0,0.0,88,0.00,,CLR,0.00,VWS V14.01,2013-06-03 09:02:00,
2013-06-03 05:07:00,64.2,60.6,29.81,NW,322,0.0,0.0,88,0.00,,CLR,0.00,VWS V14.01,2013-06-03 09:07:00,
2013-06-03 05:12:00,64.0,60.4,29.81,NW,322,0.0,0.0,88,0.00,,CLR,0.00,VWS V14.01,2013-06-03 09:12:00,
2013-06-03 05:17:00,64.1,61.1,29.81,West,273,0.0,1.0,90,0.00,,CLR,0.00,VWS V14.01,2013-06-03 09:17:00,
2013-06-03 05:22:00,64.2,61.2,29.81,West,268,1.0,2.0,90,0.00,,CLR,0.00,VWS V14.01,2013-06-03 09:22:00,
2013-06-03 05:27:00,64.1,61.1,29.82,WNW,284,0.0,2.0,90,0.00,,CLR,0.00,VWS V14.01,2013-06-03 09:27:00,
2013-06-03 05:32:00,64.0,61.0,29.82,WNW,284,1.0,1.0,90,0.00,,CLR,0.00,VWS V14.01,2013-06-03 09:32:00,
2013-06-03 05:37:00,63.8,60.5,29.82,WNW,284,0.0,1.0,89,0.00,,CLR,0.00,VWS V14.01,2013-06-03 09:37:00,
2013-06-03 05:42:00,63.8,60.5,29.82,WNW,284,0.0,1.0,89,0.00,,CLR,0.00,VWS V14.01,2013-06-03 09:42:00,
2013-06-03 05:47:00,63.8,60.5,29.82,WNW,284,0.0,1.0,89,0.00,,CLR,0.00,VWS V14.01,2013-06-03 09:47:00,
2013-06-03 05:52:00,63.9,60.6,29.83,WNW,284,0.0,1.0,89,0.00,,CLR,0.00,VWS V14.01,2013-06-03 09:52:00,
2013-06-03 05:57:00,63.9,60.6,29.83,WNW,284,0.0,1.0,89,0.00,,CLR,0.00,VWS V14.01,2013-06-03 09:57:00,
2013-06-03 06:02:00,63.8,60.8,29.83,WNW,284,0.0,0.0,90,0.00,,BKN100,0.00,VWS V14.01,2013-06-03 10:02:00,
2013-06-03 06:07:00,64.0,61.0,29.83,West,281,2.0,2.0,90,0.00,,BKN100,0.00,VWS V14.01,2013-06-03 10:07:00,
2013-06-03 06:12:00,64.1,60.8,29.83,WNW,287,2.0,3.0,89,0.00,,BKN100,0.00,VWS V14.01,2013-06-03 10:12:00,
2013-06-03 06:17:00,64.3,61.0,29.84,WNW,290,5.0,5.0,89,0.00,,BKN100,0.00,VWS V14.01,2013-06-03 10:17:00,
2013-06-03 06:22:00,64.3,61.0,29.83,WNW,294,3.0,5.0,89,0.00,,BKN100,0.00,VWS V14.01,2013-06-03 10:22:00,
2013-06-03 06:27:00,64.3,60.7,29.84,WNW,283,2.0,5.0,88,0.00,,BKN100,0.00,VWS V14.01,2013-06-03 10:27:00,
2013-06-03 06:32:00,64.4,60.8,29.84,WNW,285,1.0,2.0,88,0.00,,BKN100,0.00,VWS V14.01,2013-06-03 10:32:00,
2013-06-03 06:37:00,64.4,60.8,29.84,WNW,284,2.0,4.0,88,0.00,,BKN100,0.00,VWS V14.01,2013-06-03 10:37:00,
2013-06-03 06:42:00,64.6,61.0,29.83,WNW,288,1.0,4.0,88,0.00,,BKN100,0.00,VWS V14.01,2013-06-03 10:42:00,
2013-06-03 06:47:00,64.9,61.3,29.84,WNW,289,2.0,4.0,88,0.00,,BKN100,0.00,VWS V14.01,2013-06-03 10:47:00,
2013-06-03 06:52:00,65.0,61.4,29.84,WNW,284,3.0,4.0,88,0.00,,BKN100,0.00,VWS V14.01,2013-06-03 10:52:00,
2013-06-03 06:57:00,65.1,61.1,29.84,WNW,285,1.0,4.0,87,0.00,,BKN100,0.00,VWS V14.01,2013-06-03 10:57:00,
2013-06-03 07:02:00,65.1,61.1,29.84,WNW,284,3.0,4.0,87,0.00,,SCT110,0.00,VWS V14.01,2013-06-03 11:02:00,
2013-06-03 07:07:00,65.1,60.8,29.84,WNW,287,1.0,6.0,86,0.00,,SCT110,0.00,VWS V14.01,2013-06-03 11:07:00,
2013-06-03 07:12:00,65.4,61.1,29.84,West,281,1.0,6.0,86,0.00,,SCT110,0.00,VWS V14.01,2013-06-03 11:12:00,
2013-06-03 07:17:00,65.9,60.9,29.84,WNW,294,3.0,6.0,84,0.00,,SCT110,0.00,VWS V14.01,2013-06-03 11:17:00,
2013-06-03 07:22:00,66.1,60.8,29.84,WNW,285,3.0,6.0,83,0.00,,SCT110,0.00,VWS V14.01,2013-06-03 11:22:00,
2013-06-03 07:27:00,66.5,60.8,29.84,WNW,284,2.0,6.0,82,0.00,,SCT110,0.00,VWS V14.01,2013-06-03 11:27:00,
2013-06-03 07:32:00,66.7,60.7,29.84,West,281,1.0,1.0,81,0.00,,SCT110,0.00,VWS V14.01,2013-06-03 11:32:00,
2013-06-03 07:37:00,66.9,60.5,29.84,West,276,0.0,2.0,80,0.00,,SCT110,0.00,VWS V14.01,2013-06-03 11:37:00,
2013-06-03 07:42:00,67.4,60.7,29.84,NNW,344,1.0,2.0,79,0.00,,SCT110,0.00,VWS V14.01,2013-06-03 11:42:00,
2013-06-03 07:47:00,68.3,61.2,29.85,NNW,344,0.0,2.0,78,0.00,,SCT110,0.00,VWS V14.01,2013-06-03 11:47:00,
2013-06-03 07:52:00,68.9,61.0,29.84,WNW,288,0.0,2.0,76,0.00,,SCT110,0.00,VWS V14.01,2013-06-03 11:52:00,
2013-06-03 07:57:00,69.2,59.8,29.85,NNE,32,2.0,6.0,72,0.00,,SCT110,0.00,VWS V14.01,2013-06-03 11:57:00,
2013-06-03 08:02:00,69.3,59.9,29.85,NNE,31,1.0,2.0,72,0.00,,SCT050,0.00,VWS V14.01,2013-06-03 12:02:00,
2013-06-03 08:07:00,69.6,60.2,29.85,NE,49,1.0,2.0,72,0.00,,SCT050,0.00,VWS V14.01,2013-06-03 12:07:00,
2013-06-03 08:12:00,69.2,59.4,29.85,NE,46,1.0,5.0,71,0.00,,SCT050,0.00,VWS V14.01,2013-06-03 12:12:00,
2013-06-03 08:17:00,68.9,59.5,29.85,WNW,297,0.0,5.0,72,0.00,,SCT050,0.00,VWS V14.01,2013-06-03 12:17:00,
2013-06-03 08:22:00,68.6,59.2,29.85,NNE,16,3.0,6.0,72,0.00,,SCT050,0.00,VWS V14.01,2013-06-03 12:22:00,
2013-06-03 08:27:00,68.5,59.5,29.85,WNW,284,0.0,6.0,73,0.00,,SCT050,0.00,VWS V14.01,2013-06-03 12:27:00,
2013-06-03 08:32:00,68.4,59.0,29.85,NE,45,2.0,3.0,72,0.00,,SCT050,0.00,VWS V14.01,2013-06-03 12:32:00,
2013-06-03 08:37:00,68.6,59.6,29.85,North,1,2.0,4.0,73,0.00,,SCT050,0.00,VWS V14.01,2013-06-03 12:37:00,
2013-06-03 08:42:00,68.8,59.0,29.86,NE,53,1.0,4.0,71,0.00,,SCT050,0.00,VWS V14.01,2013-06-03 12:42:00,
2013-06-03 08:47:00,68.7,59.3,29.86,WNW,294,4.0,4.0,72,0.00,,SCT050,0.00,VWS V14.01,2013-06-03 12:47:00,
2013-06-03 08:52:00,68.6,59.2,29.86,WNW,291,1.0,4.0,72,0.00,,SCT050,0.00,VWS V14.01,2013-06-03 12:52:00,
2013-06-03 08:57:00,68.7,59.3,29.86,NE,49,3.0,6.0,72,0.00,,SCT050,0.00,VWS V14.01,2013-06-03 12:57:00,
2013-06-03 09:02:00,69.1,59.7,29.86,NNW,339,1.0,1.0,72,0.00,,OVC030,0.00,VWS V14.01,2013-06-03 13:02:00,
2013-06-03 09:07:00,69.4,58.8,29.86,NNE,15,2.0,6.0,69,0.00,,OVC030,0.00,VWS V14.01,2013-06-03 13:07:00,
2013-06-03 09:12:00,69.5,58.9,29.86,NNE,15,2.0,6.0,69,0.00,,OVC030,0.00,VWS V14.01,2013-06-03 13:12:00,
2013-06-03 09:17:00,69.8,58.8,29.86,ENE,58,1.0,6.0,68,0.00,,OVC030,0.00,VWS V14.01,2013-06-03 13:17:00,
2013-06-03 09:22:00,69.7,58.3,29.86,NNE,19,1.0,8.0,67,0.00,,OVC030,0.00,VWS V14.01,2013-06-03 13:22:00,
2013-06-03 09:27:00,69.1,58.1,29.86,NE,56,2.0,8.0,68,0.00,,OVC030,0.00,VWS V14.01,2013-06-03 13:27:00,
2013-06-03 09:32:00,69.5,58.9,29.86,North,6,5.0,5.0,69,0.00,,OVC030,0.00,VWS V14.01,2013-06-03 13:32:00,
2013-06-03 09:37:00,70.1,59.1,29.86,NE,39,3.0,5.0,68,0.00,,OVC030,0.00,VWS V14.01,2013-06-03 13:37:00,
2013-06-03 09:42:00,70.6,58.3,29.86,NE,56,2.0,7.0,65,0.00,,OVC030,0.00,VWS V14.01,2013-06-03 13:42:00,
2013-06-03 09:47:00,70.5,58.6,29.86,North,350,5.0,7.0,66,0.00,,OVC030,0.00,VWS V14.01,2013-06-03 13:47:00,
2013-06-03 09:52:00,70.4,58.5,29.85,NNW,340,1.0,7.0,66,0.00,,OVC030,0.00,VWS V14.01,2013-06-03 13:52:00,
2013-06-03 09:57:00,70.5,58.6,29.86,NE,34,3.0,7.0,66,0.00,,OVC030,0.00,VWS V14.01,2013-06-03 13:57:00,
2013-06-03 10:02:00,70.5,58.2,29.86,WNW,296,3.0,6.0,65,0.00,,BKN032,0.00,VWS V14.01,2013-06-03 14:02:00,
2013-06-03 10:07:00,71.0,59.9,29.85,West,273,0.0,6.0,68,0.00,,BKN032,0.00,VWS V14.01,2013-06-03 14:07:00,
2013-06-03 10:12:00,72.2,58.5,29.86,WNW,297,1.0,6.0,62,0.00,,BKN032,0.00,VWS V14.01,2013-06-03 14:12:00,
2013-06-03 10:17:00,71.8,59.0,29.85,SSW,213,2.0,6.0,64,0.00,,BKN032,0.00,VWS V14.01,2013-06-03 14:17:00,
2013-06-03 10:22:00,71.8,59.0,29.85,WSW,243,1.0,6.0,64,0.00,,BKN032,0.00,VWS V14.01,2013-06-03 14:22:00,
2013-06-03 10:27:00,72.1,58.8,29.85,NE,50,4.0,6.0,63,0.00,,BKN032,0.00,VWS V14.01,2013-06-03 14:27:00,
2013-06-03 10:32:00,72.1,59.7,29.85,SW,221,0.0,2.0,65,0.00,,BKN032,0.00,VWS V14.01,2013-06-03 14:32:00,
2013-06-03 10:37:00,72.7,58.9,29.85,East,82,1.0,4.0,62,0.00,,BKN032,0.00,VWS V14.01,2013-06-03 14:37:00,
2013-06-03 10:42:00,72.4,58.7,29.85,NNE,15,2.0,6.0,62,0.00,,BKN032,0.00,VWS V14.01,2013-06-03 14:42:00,
2013-06-03 10:47:00,72.5,58.3,29.85,NE,37,0.0,6.0,61,0.00,,BKN032,0.00,VWS V14.01,2013-06-03 14:47:00,
2013-06-03 10:52:00,72.5,59.2,29.85,East,82,3.0,6.0,63,0.00,,BKN032,0.00,VWS V14.01,2013-06-03 14:52:00,
2013-06-03 10:57:00,72.0,58.7,29.85,ESE,102,1.0,6.0,63,0.00,,BKN032,0.00,VWS V14.01,2013-06-03 14:57:00,
2013-06-03 11:02:00,72.2,58.5,29.85,West,269,1.0,4.0,62,0.00,,BKN036,0.00,VWS V14.01,2013-06-03 15:02:00,
2013-06-03 11:07:00,72.5,59.2,29.85,West,269,0.0,4.0,63,0.00,,BKN036,0.00,VWS V14.01,2013-06-03 15:07:00,
2013-06-03 11:12:00,72.8,59.5,29.85,East,91,1.0,4.0,63,0.00,,BKN036,0.00,VWS V14.01,2013-06-03 15:12:00,
2013-06-03 11:17:00,72.4,59.1,29.85,NNE,20,0.0,4.0,63,0.00,,BKN036,0.00,VWS V14.01,2013-06-03 15:17:00,
2013-06-03 11:22:00,72.1,58.4,29.85,SSW,200,0.0,4.0,62,0.00,,BKN036,0.00,VWS V14.01,2013-06-03 15:22:00,
2013-06-03 11:27:00,71.9,58.6,29.85,West,281,2.0,4.0,63,0.00,,BKN036,0.00,VWS V14.01,2013-06-03 15:27:00,
2013-06-03 11:32:00,71.6,58.3,29.85,WNW,291,1.0,4.0,63,0.00,,BKN036,0.00,VWS V14.01,2013-06-03 15:32:00,
2013-06-03 11:37:00,71.4,58.6,29.85,SW,214,1.0,4.0,64,0.00,,BKN036,0.00,VWS V14.01,2013-06-03 15:37:00,
2013-06-03 11:42:00,71.5,58.7,29.85,WNW,284,3.0,4.0,64,0.00,,BKN036,0.00,VWS V14.01,2013-06-03 15:42:00,
2013-06-03 11:47:00,71.5,58.7,29.85,WNW,287,0.0,4.0,64,0.00,,BKN036,0.00,VWS V14.01,2013-06-03 15:47:00,
2013-06-03 11:52:00,71.8,58.5,29.86,WNW,284,1.0,4.0,63,0.00,,BKN036,0.00,VWS V14.01,2013-06-03 15:52:00,
2013-06-03 11:57:00,72.0,58.7,29.85,North,5,0.0,4.0,63,0.00,,BKN036,0.00,VWS V14.01,2013-06-03 15:57:00,
2013-06-03 12:02:00,72.2,58.9,29.85,WNW,295,1.0,4.0,63,0.00,,OVC049,0.00,VWS V14.01,2013-06-03 16:02:00,
2013-06-03 12:07:00,72.4,58.7,29.85,NNW,344,1.0,5.0,62,0.00,,OVC049,0.00,VWS V14.01,2013-06-03 16:07:00,
2013-06-03 12:12:00,73.1,58.4,29.85,NNE,30,0.0,5.0,60,0.00,,OVC049,0.00,VWS V14.01,2013-06-03 16:12:00,
2013-06-03 12:17:00,73.6,58.9,29.85,WSW,240,1.0,5.0,60,0.00,,OVC049,0.00,VWS V14.01,2013-06-03 16:17:00,
2013-06-03 12:22:00,73.6,58.9,29.85,SSW,203,2.0,5.0,60,0.00,,OVC049,0.00,VWS V14.01,2013-06-03 16:22:00,
2013-06-03 12:27:00,73.9,58.7,29.85,NNE,33,2.0,5.0,59,0.00,,OVC049,0.00,VWS V14.01,2013-06-03 16:27:00,
2013-06-03 12:32:00,73.7,59.4,29.85,WNW,294,1.0,2.0,61,0.00,,OVC049,0.00,VWS V14.01,2013-06-03 16:32:00,
2013-06-03 12:37:00,73.6,58.4,29.85,NW,316,0.0,2.0,59,0.00,,OVC049,0.00,VWS V14.01,2013-06-03 16:37:00,
2013-06-03 12:42:00,73.3,59.5,29.85,WNW,295,5.0,5.0,62,0.00,,OVC049,0.00,VWS V14.01,2013-06-03 16:42:00,
2013-06-03 12:47:00,73.3,59.0,29.85,SSW,205,1.0,5.0,61,0.00,,OVC049,0.00,VWS V14.01,2013-06-03 16:47:00,
2013-06-03 12:52:00,73.3,59.0,29.84,WSW,238,0.0,5.0,61,0.00,,OVC049,0.00,VWS V14.01,2013-06-03 16:52:00,
2013-06-03 12:57:00,74.1,59.8,29.84,West,281,0.0,5.0,61,0.00,,OVC049,0.00,VWS V14.01,2013-06-03 16:57:00,
2013-06-03 13:02:00,75.3,60.0,29.84,ESE,105,2.0,2.0,59,0.00,,BKN045,0.00,VWS V14.01,2013-06-03 17:02:00,
2013-06-03 13:07:00,75.5,59.7,29.84,WNW,300,1.0,2.0,58,0.00,,BKN045,0.00,VWS V14.01,2013-06-03 17:07:00,
2013-06-03 13:12:00,75.1,58.3,29.84,NNW,342,1.0,4.0,56,0.00,,BKN045,0.00,VWS V14.01,2013-06-03 17:12:00,
2013-06-03 13:17:00,75.2,59.9,29.84,SW,218,0.0,4.0,59,0.00,,BKN045,0.00,VWS V14.01,2013-06-03 17:17:00,
2013-06-03 13:22:00,76.2,60.8,29.84,NW,324,0.0,4.0,59,0.00,,BKN045,0.00,VWS V14.01,2013-06-03 17:22:00,
2013-06-03 13:27:00,76.4,59.6,29.83,East,94,2.0,4.0,56,0.00,,BKN045,0.00,VWS V14.01,2013-06-03 17:27:00,
2013-06-03 13:32:00,76.0,59.7,29.83,East,96,0.0,2.0,57,0.00,,BKN045,0.00,VWS V14.01,2013-06-03 17:32:00,
2013-06-03 13:37:00,76.2,59.9,29.84,NNW,344,0.0,3.0,57,0.00,,BKN045,0.00,VWS V14.01,2013-06-03 17:37:00,
2013-06-03 13:42:00,75.7,58.9,29.84,North,6,1.0,4.0,56,0.00,,BKN045,0.00,VWS V14.01,2013-06-03 17:42:00,
2013-06-03 13:47:00,75.0,59.2,29.84,NW,323,1.0,4.0,58,0.00,,BKN045,0.00,VWS V14.01,2013-06-03 17:47:00,
2013-06-03 13:52:00,75.0,59.7,29.84,East,94,2.0,4.0,59,0.00,,BKN045,0.00,VWS V14.01,2013-06-03 17:52:00,
2013-06-03 13:57:00,74.1,59.3,29.84,East,86,2.0,4.0,60,0.00,,BKN045,0.00,VWS V14.01,2013-06-03 17:57:00,
2013-06-03 14:02:00,74.3,60.0,29.83,NNE,31,1.0,2.0,61,0.00,,OVC055,0.00,VWS V14.01,2013-06-03 18:02:00,
2013-06-03 14:07:00,74.3,59.1,29.83,ENE,72,0.0,5.0,59,0.00,,OVC055,0.00,VWS V14.01,2013-06-03 18:07:00,
2013-06-03 14:12:00,74.5,60.2,29.83,NNE,27,1.0,5.0,61,0.00,,OVC055,0.00,VWS V14.01,2013-06-03 18:12:00,
2013-06-03 14:17:00,75.8,60.5,29.83,NNE,26,0.0,5.0,59,0.00,,OVC055,0.00,VWS V14.01,2013-06-03 18:17:00,
2013-06-03 14:22:00,76.6,60.2,29.83,NNE,25,0.0,5.0,57,0.00,,OVC055,0.00,VWS V14.01,2013-06-03 18:22:00,
2013-06-03 14:27:00,76.7,59.3,29.82,NNW,327,0.0,5.0,55,0.00,,OVC055,0.00,VWS V14.01,2013-06-03 18:27:00,
2013-06-03 14:32:00,78.0,59.0,29.82,NE,42,3.0,6.0,52,0.00,,OVC055,0.00,VWS V14.01,2013-06-03 18:32:00,
2013-06-03 14:37:00,77.0,58.6,29.82,NNE,23,2.0,6.0,53,0.00,,OVC055,0.00,VWS V14.01,2013-06-03 18:37:00,
2013-06-03 14:42:00,76.5,58.6,29.82,WNW,294,4.0,6.0,54,0.00,,OVC055,0.00,VWS V14.01,2013-06-03 18:42:00,
2013-06-03 14:47:00,75.8,58.5,29.82,WNW,291,2.0,7.0,55,0.00,,OVC055,0.00,VWS V14.01,2013-06-03 18:47:00,
2013-06-03 14:52:00,75.3,58.5,29.82,ESE,103,0.0,7.0,56,0.00,,OVC055,0.00,VWS V14.01,2013-06-03 18:52:00,
2013-06-03 14:57:00,75.6,58.8,29.82,NE,34,3.0,7.0,56,0.00,,OVC055,0.00,VWS V14.01,2013-06-03 18:57:00,
2013-06-03 15:02:00,75.4,59.1,29.82,ENE,58,2.0,5.0,57,0.00,,OVC085,0.00,VWS V14.01,2013-06-03 19:02:00,
2013-06-03 15:07:00,75.6,59.8,29.82,NNW,339,2.0,5.0,58,0.00,,OVC085,0.00,VWS V14.01,2013-06-03 19:07:00,
2013-06-03 15:12:00,76.3,59.5,29.82,ENE,74,1.0,5.0,56,0.00,,OVC085,0.00,VWS V14.01,2013-06-03 19:12:00,
2013-06-03 15:17:00,75.5,58.7,29.82,ESE,104,2.0,5.0,56,0.00,,OVC085,0.00,VWS V14.01,2013-06-03 19:17:00,
2013-06-03 15:22:00,75.4,58.6,29.81,NE,56,2.0,5.0,56,0.00,,OVC085,0.00,VWS V14.01,2013-06-03 19:22:00,
2013-06-03 15:27:00,74.9,58.7,29.82,NE,53,3.0,5.0,57,0.00,,OVC085,0.00,VWS V14.01,2013-06-03 19:27:00,
2013-06-03 15:32:00,74.4,59.6,29.82,NW,323,0.0,2.0,60,0.00,,OVC085,0.00,VWS V14.01,2013-06-03 19:32:00,
2013-06-03 15:37:00,74.8,59.5,29.82,NNE,33,1.0,3.0,59,0.00,,OVC085,0.00,VWS V14.01,2013-06-03 19:37:00,
2013-06-03 15:42:00,75.1,58.8,29.81,NNE,21,3.0,5.0,57,0.00,,OVC085,0.00,VWS V14.01,2013-06-03 19:42:00,
2013-06-03 15:47:00,74.6,58.9,29.82,NNW,346,3.0,7.0,58,0.00,,OVC085,0.00,VWS V14.01,2013-06-03 19:47:00,
2013-06-03 15:52:00,74.3,58.6,29.82,NE,34,2.0,7.0,58,0.00,,OVC085,0.00,VWS V14.01,2013-06-03 19:52:00,
2013-06-03 15:57:00,74.6,59.3,29.82,NNE,31,0.0,7.0,59,0.00,,OVC085,0.00,VWS V14.01,2013-06-03 19:57:00,
2013-06-03 16:02:00,75.3,59.0,29.81,NNE,25,0.0,1.0,57,0.00,,BKN080,0.00,VWS V14.01,2013-06-03 20:02:00,
2013-06-03 16:07:00,76.0,59.7,29.81,NNE,29,2.0,4.0,57,0.00,,BKN080,0.00,VWS V14.01,2013-06-03 20:07:00,
2013-06-03 16:12:00,76.9,59.0,29.81,WSW,241,1.0,4.0,54,0.00,,BKN080,0.00,VWS V14.01,2013-06-03 20:12:00,
2013-06-03 16:17:00,77.5,59.0,29.81,East,84,3.0,4.0,53,0.00,,BKN080,0.00,VWS V14.01,2013-06-03 20:17:00,
2013-06-03 16:22:00,77.2,59.3,29.81,WNW,292,2.0,4.0,54,0.00,,BKN080,0.00,VWS V14.01,2013-06-03 20:22:00,
2013-06-03 16:27:00,77.2,58.8,29.81,NNW,340,2.0,4.0,53,0.00,,BKN080,0.00,VWS V14.01,2013-06-03 20:27:00,
2013-06-03 16:32:00,77.1,59.7,29.81,NNE,19,1.0,1.0,55,0.00,,BKN080,0.00,VWS V14.01,2013-06-03 20:32:00,
2013-06-03 16:37:00,76.8,58.4,29.81,ESE,107,1.0,4.0,53,0.00,,BKN080,0.00,VWS V14.01,2013-06-03 20:37:00,
2013-06-03 16:42:00,76.3,57.9,29.80,East,84,2.0,4.0,53,0.00,,BKN080,0.00,VWS V14.01,2013-06-03 20:42:00,
2013-06-03 16:47:00,76.7,58.8,29.81,NNE,25,3.0,4.0,54,0.00,,BKN080,0.00,VWS V14.01,2013-06-03 20:47:00,
2013-06-03 16:52:00,76.7,56.7,29.81,NNE,20,3.0,7.0,50,0.00,,BKN080,0.00,VWS V14.01,2013-06-03 20:52:00,
2013-06-03 16:57:00,76.6,57.1,29.81,NW,304,0.0,7.0,51,0.00,,BKN080,0.00,VWS V14.01,2013-06-03 20:57:00,
2013-06-03 17:02:00,76.8,57.3,29.81,NNW,347,1.0,4.0,51,0.00,,SCT080,0.00,VWS V14.01,2013-06-03 21:02:00,
2013-06-03 17:07:00,77.1,56.5,29.81,NNE,23,0.0,4.0,49,0.00,,SCT080,0.00,VWS V14.01,2013-06-03 21:07:00,
2013-06-03 17:12:00,77.9,57.8,29.81,NNE,33,0.0,4.0,50,0.00,,SCT080,0.00,VWS V14.01,2013-06-03 21:12:00,
2013-06-03 17:17:00,78.3,57.0,29.81,WSW,256,2.0,4.0,48,0.00,,SCT080,0.00,VWS V14.01,2013-06-03 21:17:00,
2013-06-03 17:22:00,77.9,56.7,29.80,East,81,2.0,4.0,48,0.00,,SCT080,0.00,VWS V14.01,2013-06-03 21:22:00,
2013-06-03 17:27:00,77.3,57.2,29.80,ENE,64,1.0,4.0,50,0.00,,SCT080,0.00,VWS V14.01,2013-06-03 21:27:00,
2013-06-03 17:32:00,77.4,55.6,29.80,NNE,33,3.0,5.0,47,0.00,,SCT080,0.00,VWS V14.01,2013-06-03 21:32:00,
2013-06-03 17:37:00,77.2,56.6,29.80,WNW,290,1.0,5.0,49,0.00,,SCT080,0.00,VWS V14.01,2013-06-03 21:37:00,
2013-06-03 17:42:00,77.5,56.9,29.80,North,8,1.0,5.0,49,0.00,,SCT080,0.00,VWS V14.01,2013-06-03 21:42:00,
2013-06-03 17:47:00,76.9,56.3,29.80,NNE,29,0.0,5.0,49,0.00,,SCT080,0.00,VWS V14.01,2013-06-03 21:47:00,
2013-06-03 17:52:00,76.4,55.3,29.80,NNE,25,1.0,5.0,48,0.00,,SCT080,0.00,VWS V14.01,2013-06-03 21:52:00,
2013-06-03 17:57:00,76.7,56.1,29.80,NE,48,1.0,5.0,49,0.00,,SCT080,0.00,VWS V14.01,2013-06-03 21:57:00,
2013-06-03 18:02:00,77.7,55.9,29.80,WNW,286,0.0,0.0,47,0.00,,SCT047,0.00,VWS V14.01,2013-06-03 22:02:00,
2013-06-03 18:07:00,78.5,57.2,29.80,NNE,14,1.0,3.0,48,0.00,,SCT047,0.00,VWS V14.01,2013-06-03 22:07:00,
2013-06-03 18:12:00,78.7,55.0,29.80,NNE,12,0.0,6.0,44,0.00,,SCT047,0.00,VWS V14.01,2013-06-03 22:12:00,
2013-06-03 18:17:00,78.1,54.4,29.80,NW,305,0.0,6.0,44,0.00,,SCT047,0.00,VWS V14.01,2013-06-03 22:17:00,
2013-06-03 18:22:00,77.6,54.6,29.81,ENE,71,2.0,10.0,45,0.00,,SCT047,0.00,VWS V14.01,2013-06-03 22:22:00,
2013-06-03 18:27:00,76.2,55.7,29.81,ENE,68,9.0,10.0,49,0.00,,SCT047,0.00,VWS V14.01,2013-06-03 22:27:00,
2013-06-03 18:32:00,75.9,56.0,29.81,NE,41,4.0,7.0,50,0.00,,SCT047,0.00,VWS V14.01,2013-06-03 22:32:00,
2013-06-03 18:37:00,75.7,55.2,29.81,East,94,3.0,9.0,49,0.00,,SCT047,0.00,VWS V14.01,2013-06-03 22:37:00,
2013-06-03 18:42:00,75.6,55.7,29.81,ESE,104,5.0,9.0,50,0.00,,SCT047,0.00,VWS V14.01,2013-06-03 22:42:00,
2013-06-03 18:47:00,74.9,55.0,29.81,North,357,2.0,9.0,50,0.00,,SCT047,0.00,VWS V14.01,2013-06-03 22:47:00,
2013-06-03 18:52:00,74.7,54.3,29.82,ESE,108,6.0,9.0,49,0.00,,SCT047,0.00,VWS V14.01,2013-06-03 22:52:00,
2013-06-03 18:57:00,74.5,54.1,29.82,NE,44,3.0,9.0,49,0.00,,SCT047,0.00,VWS V14.01,2013-06-03 22:57:00,
2013-06-03 19:02:00,74.6,54.2,29.82,ESE,108,2.0,5.0,49,0.00,,BKN070,0.00,VWS V14.01,2013-06-03 23:02:00,
2013-06-03 19:07:00,74.6,53.6,29.82,ESE,107,4.0,10.0,48,0.00,,BKN070,0.00,VWS V14.01,2013-06-03 23:07:00,
2013-06-03 19:12:00,74.1,53.2,29.83,ENE,65,6.0,10.0,48,0.00,,BKN070,0.00,VWS V14.01,2013-06-03 23:12:00,
2013-06-03 19:17:00,73.7,52.8,29.83,ESE,104,7.0,10.0,48,0.00,,BKN070,0.00,VWS V14.01,2013-06-03 23:17:00,
2013-06-03 19:22:00,73.4,52.0,29.83,East,94,3.0,10.0,47,0.00,,BKN070,0.00,VWS V14.01,2013-06-03 23:22:00,
2013-06-03 19:27:00,73.1,51.7,29.84,East,87,2.0,10.0,47,0.00,,BKN070,0.00,VWS V14.01,2013-06-03 23:27:00,
2013-06-03 19:32:00,72.9,51.5,29.84,NNE,26,2.0,6.0,47,0.00,,BKN070,0.00,VWS V14.01,2013-06-03 23:32:00,
2013-06-03 19:37:00,72.6,49.5,29.85,NNE,18,3.0,10.0,44,0.00,,BKN070,0.00,VWS V14.01,2013-06-03 23:37:00,
2013-06-03 19:42:00,72.4,49.3,29.85,ENE,61,6.0,12.0,44,0.00,,BKN070,0.00,VWS V14.01,2013-06-03 23:42:00,
2013-06-03 19:47:00,72.0,48.3,29.85,NE,41,2.0,13.0,43,0.00,,BKN070,0.00,VWS V14.01,2013-06-03 23:47:00,
2013-06-03 19:52:00,71.5,47.8,29.86,North,349,6.0,13.0,43,0.00,,BKN070,0.00,VWS V14.01,2013-06-03 23:52:00,
2013-06-03 19:57:00,71.0,48.0,29.86,WNW,302,1.0,13.0,44,0.00,,BKN070,0.00,VWS V14.01,2013-06-03 23:57:00,
2013-06-03 20:02:00,70.6,47.7,29.86,North,352,7.0,7.0,44,0.00,,CLR,0.00,VWS V14.01,2013-06-04 00:02:00,
2013-06-03 20:07:00,70.2,47.3,29.87,North,360,3.0,9.0,44,0.00,,CLR,0.00,VWS V14.01,2013-06-04 00:07:00,
2013-06-03 20:12:00,69.8,47.5,29.87,NE,48,1.0,9.0,45,0.00,,CLR,0.00,VWS V14.01,2013-06-04 00:12:00,
2013-06-03 20:17:00,69.3,47.7,29.87,NNE,18,2.0,9.0,46,0.00,,CLR,0.00,VWS V14.01,2013-06-04 00:17:00,
2013-06-03 20:22:00,69.0,46.8,29.87,NE,35,5.0,9.0,45,0.00,,CLR,0.00,VWS V14.01,2013-06-04 00:22:00,
2013-06-03 20:27:00,68.8,46.0,29.87,NNE,31,2.0,9.0,44,0.00,,CLR,0.00,VWS V14.01,2013-06-04 00:27:00,
2013-06-03 20:32:00,68.4,46.2,29.87,North,11,3.0,4.0,45,0.00,,CLR,0.00,VWS V14.01,2013-06-04 00:32:00,
2013-06-03 20:37:00,68.1,46.0,29.87,NNE,13,2.0,6.0,45,0.00,,CLR,0.00,VWS V14.01,2013-06-04 00:37:00,
2013-06-03 20:42:00,67.8,46.3,29.88,North,354,0.0,6.0,46,0.00,,CLR,0.00,VWS V14.01,2013-06-04 00:42:00,
2013-06-03 20:47:00,67.5,46.0,29.88,NE,56,1.0,6.0,46,0.00,,CLR,0.00,VWS V14.01,2013-06-04 00:47:00,
2013-06-03 20:52:00,67.2,45.7,29.88,North,360,4.0,6.0,46,0.00,,CLR,0.00,VWS V14.01,2013-06-04 00:52:00,
2013-06-03 20:57:00,66.9,44.9,29.89,North,8,0.0,6.0,45,0.00,,CLR,0.00,VWS V14.01,2013-06-04 00:57:00,
2013-06-03 21:02:00,66.6,44.6,29.89,North,6,1.0,5.0,45,0.00,,CLR,0.00,VWS V14.01,2013-06-04 01:02:00,
2013-06-03 21:07:00,66.4,44.4,29.89,NNE,13,1.0,5.0,45,0.00,,CLR,0.00,VWS V14.01,2013-06-04 01:07:00,
2013-06-03 21:12:00,66.1,44.2,29.90,NW,324,0.0,7.0,45,0.00,,CLR,0.00,VWS V14.01,2013-06-04 01:12:00,
2013-06-03 21:17:00,65.9,44.6,29.90,WNW,288,0.0,7.0,46,0.00,,CLR,0.00,VWS V14.01,2013-06-04 01:17:00,
2013-06-03 21:22:00,65.6,44.3,29.91,NW,305,1.0,7.0,46,0.00,,CLR,0.00,VWS V14.01,2013-06-04 01:22:00,
2013-06-03 21:27:00,65.4,44.1,29.91,WNW,300,2.0,7.0,46,0.00,,CLR,0.00,VWS V14.01,2013-06-04 01:27:00,
2013-06-03 21:32:00,65.2,43.9,29.91,NNE,27,0.0,2.0,46,0.00,,CLR,0.00,VWS V14.01,2013-06-04 01:32:00,
2013-06-03 21:37:00,64.9,44.2,29.91,NNW,339,0.0,2.0,47,0.00,,CLR,0.00,VWS V14.01,2013-06-04 01:37:00,
2013-06-03 21:42:00,64.6,43.9,29.91,West,276,0.0,2.0,47,0.00,,CLR,0.00,VWS V14.01,2013-06-04 01:42:00,
2013-06-03 21:47:00,64.3,43.7,29.91,West,281,1.0,2.0,47,0.00,,CLR,0.00,VWS V14.01,2013-06-04 01:47:00,
2013-06-03 21:52:00,64.2,44.1,29.91,West,281,0.0,2.0,48,0.00,,CLR,0.00,VWS V14.01,2013-06-04 01:52:00,
2013-06-03 21:57:00,63.9,43.8,29.92,WNW,283,0.0,2.0,48,0.00,,CLR,0.00,VWS V14.01,2013-06-04 01:57:00,
2013-06-03 22:02:00,63.7,43.1,29.92,WNW,285,2.0,2.0,47,0.00,,CLR,0.00,VWS V14.01,2013-06-04 02:02:00,
2013-06-03 22:07:00,63.6,43.6,29.92,WNW,290,1.0,3.0,48,0.00,,CLR,0.00,VWS V14.01,2013-06-04 02:07:00,
2013-06-03 22:12:00,63.5,44.0,29.93,WNW,289,0.0,3.0,49,0.00,,CLR,0.00,VWS V14.01,2013-06-04 02:12:00,
2013-06-03 22:17:00,63.0,44.1,29.93,WNW,290,0.0,3.0,50,0.00,,CLR,0.00,VWS V14.01,2013-06-04 02:17:00,
2013-06-03 22:22:00,62.6,43.7,29.93,NW,309,0.0,3.0,50,0.00,,CLR,0.00,VWS V14.01,2013-06-04 02:22:00,
2013-06-03 22:27:00,62.2,43.9,29.93,NW,309,0.0,3.0,51,0.00,,CLR,0.00,VWS V14.01,2013-06-04 02:27:00,
2013-06-03 22:32:00,61.7,44.4,29.93,NW,309,0.0,0.0,53,0.00,,CLR,0.00,VWS V14.01,2013-06-04 02:32:00,
2013-06-03 22:37:00,61.3,44.5,29.93,NNW,342,0.0,0.0,54,0.00,,CLR,0.00,VWS V14.01,2013-06-04 02:37:00,
2013-06-03 22:42:00,60.9,44.2,29.94,North,360,1.0,2.0,54,0.00,,CLR,0.00,VWS V14.01,2013-06-04 02:42:00,
2013-06-03 22:47:00,60.5,43.8,29.94,WNW,300,1.0,2.0,54,0.00,,CLR,0.00,VWS V14.01,2013-06-04 02:47:00,
2013-06-03 22:52:00,60.4,43.7,29.94,NW,322,0.0,2.0,54,0.00,,CLR,0.00,VWS V14.01,2013-06-04 02:52:00,
2013-06-03 22:57:00,60.2,43.5,29.94,NW,312,0.0,2.0,54,0.00,,CLR,0.00,VWS V14.01,2013-06-04 02:57:00,
2013-06-03 23:02:00,60.0,43.8,29.94,NW,312,0.0,0.0,55,0.00,,CLR,0.00,VWS V14.01,2013-06-04 03:02:00,
2013-06-03 23:07:00,59.7,44.9,29.94,NW,312,0.0,0.0,58,0.00,,CLR,0.00,VWS V14.01,2013-06-04 03:07:00,
2013-06-03 23:12:00,59.1,45.2,29.95,North,9,0.0,1.0,60,0.00,,CLR,0.00,VWS V14.01,2013-06-04 03:12:00,
2013-06-03 23:17:00,58.6,45.6,29.95,NNE,27,0.0,1.0,62,0.00,,CLR,0.00,VWS V14.01,2013-06-04 03:17:00,
2013-06-03 23:22:00,58.0,45.9,29.95,NNE,27,0.0,1.0,64,0.00,,CLR,0.00,VWS V14.01,2013-06-04 03:22:00,
2013-06-03 23:27:00,57.5,45.8,29.96,NNE,27,0.0,1.0,65,0.00,,CLR,0.00,VWS V14.01,2013-06-04 03:27:00,
2013-06-03 23:32:00,57.2,45.2,29.96,NNE,27,0.0,0.0,64,0.00,,CLR,0.00,VWS V14.01,2013-06-04 03:32:00,
2013-06-03 23:37:00,56.8,45.2,29.96,NNE,27,0.0,0.0,65,0.00,,CLR,0.00,VWS V14.01,2013-06-04 03:37:00,
2013-06-03 23:42:00,56.6,45.0,29.96,NNE,26,0.0,0.0,65,0.00,,CLR,0.00,VWS V14.01,2013-06-04 03:42:00,
2013-06-03 23:47:00,56.3,44.7,29.96,NNE,25,0.0,0.0,65,0.00,,CLR,0.00,VWS V14.01,2013-06-04 03:47:00,
2013-06-03 23:52:00,56.1,44.9,29.97,NNE,27,0.0,0.0,66,0.00,,CLR,0.00,VWS V14.01,2013-06-04 03:52:00,
2013-06-03 23:57:00,55.9,44.7,29.97,NNE,25,0.0,0.0,66,0.00,,CLR,0.00,VWS V14.01,2013-06-04 03:57:00,